Hughes, AK

6:42 AM AKST on January 17, 2017 (GMT -0900)
Indian Mountain

Weather History for PAIM - September, 2013

Change the Weather History Date:

Tuesday, September 10, 2013

  Actual Average Record
Temperature  
Mean Temperature 48 °F -  
Max Temperature 56 °F 48 °F 64 °F (2010)
Min Temperature 42 °F 34 °F 10 °F (1997)
Degree Days  
Heating Degree Days 16    
Moisture  
Dew Point 45 °F    
Average Humidity 88    
Maximum Humidity 100    
Minimum Humidity 66    
Precipitation  
Precipitation 0.14 in - - ()
Sea Level Pressure  
Sea Level Pressure 29.68 in    
Wind  
Wind Speed 4 mph (SW)    
Max Wind Speed 8 mph    
Max Gust Speed -    
Visibility 10 miles    
Events Rain    
Averages and records for this station are not official NWS values.
T = Trace of Precipitation, MM = Missing Value Source: NWS Daily Summary

Daily Weather History Graph

Daily Weather History Graph

Search for Another Location

Airport or City:

Trip Planner

Search our weather history database for the weather conditions in past years. The results will help you decide how hot, cold, wet, or windy it might be!

Date:

Astronomy

Sep. 10, 2013 Rise Set
Actual Time 7:20 AM AKDT 9:00 PM AKDT
Civil Twilight 6:26 AM AKDT 9:54 PM AKDT
Nautical Twilight 5:14 AM AKDT 11:05 PM AKDT
Astronomical Twilight 3:24 AM AKDT 12:49 AM AKDT
Moon 3:36 PM AKDT (9/10) 9:31 PM AKDT (9/10)
Length of Visible Light 15h 27m
Length of Day
13h 39m
Waxing Crescent, 30% of the Moon is Illuminated
Sep 10
Waxing Crescent
Sep 12
First Quarter
Sep 19
Full
Sep 26
Last Quarter
Oct 4
New

Hourly Weather History & Observations

Time (AKDT) Temp. Windchill Dew Point Humidity Pressure Visibility Wind Dir Wind Speed Gust Speed Precip Events Conditions
12:55 AM 48.7 °F - 41.9 °F 77% 29.69 in 10.0 mi ENE 8.1 mph - N/A Rain Light Rain
1:55 AM 48.2 °F - 41.7 °F 78% 29.69 in 10.0 mi SE 6.9 mph - N/A Rain Light Rain Showers
2:55 AM 46.4 °F 45.2 °F 43.0 °F 88% 29.69 in 10.0 mi Variable 3.5 mph - 0.02 in Rain Light Rain
3:55 AM 45.7 °F 43.4 °F 43.2 °F 91% 29.68 in 10.0 mi WSW 4.6 mph - 0.02 in Rain Light Rain
4:55 AM 45.1 °F 42.8 °F 43.3 °F 93% 29.68 in 10.0 mi SSE 4.6 mph - 0.00 in   Mostly Cloudy
5:55 AM 45.1 °F - 43.2 °F 93% 29.68 in 10.0 mi Variable 1.2 mph - N/A   Mostly Cloudy
6:55 AM 44.2 °F - 42.4 °F 93% 29.67 in 10.0 mi NW 2.3 mph - N/A   Overcast
7:55 AM 42.8 °F - 42.8 °F 100% 29.68 in 10.0 mi Variable 1.2 mph - N/A   Overcast
8:46 AM 44.6 °F - 42.8 °F 93% 29.67 in 10.0 mi Variable 1.2 mph - N/A Rain Light Rain
8:55 AM 44.6 °F - 42.8 °F 93% 29.67 in 10.0 mi WSW 2.3 mph - N/A Rain Light Rain
9:29 AM 44.6 °F - 42.8 °F 93% 29.67 in 10.0 mi Variable 1.2 mph - N/A Rain Light Rain Showers
9:41 AM 44.6 °F - 42.8 °F 93% 29.67 in 10.0 mi SSE 1.2 mph - N/A   Mostly Cloudy
9:55 AM 44.6 °F - 42.8 °F 93% 29.68 in 10.0 mi South 1.2 mph - N/A   Mostly Cloudy
10:55 AM 48.2 °F - 44.6 °F 87% 29.67 in 10.0 mi SSE 2.3 mph - N/A   Mostly Cloudy
11:55 AM 50.9 °F - 42.8 °F 74% 29.67 in 10.0 mi SE 6.9 mph - N/A   Clear
1:55 PM 54.5 °F - 44.4 °F 69% 29.66 in 10.0 mi ESE 3.5 mph - N/A   Scattered Clouds
2:55 PM 55.4 °F - 44.1 °F 66% 29.66 in 10.0 mi Variable 1.2 mph - N/A   Mostly Cloudy
3:55 PM 55.6 °F - 44.6 °F 67% 29.67 in 10.0 mi SSW 2.3 mph - N/A Rain Light Rain
4:55 PM 51.4 °F - 49.1 °F 92% 29.67 in 9.0 mi North 3.5 mph - 0.04 in Rain Rain
5:55 PM 52.2 °F - 48.9 °F 89% 29.68 in 10.0 mi NW 3.5 mph - 0.00 in Rain Light Rain Showers
6:55 PM 51.4 °F - 48.9 °F 91% 29.68 in 10.0 mi Variable 2.3 mph - 0.00 in Rain Light Rain Showers
7:45 PM 50.0 °F - 48.2 °F 94% 29.70 in 9.0 mi Calm Calm - N/A Rain Rain
7:55 PM 49.8 °F - 46.9 °F 90% 29.70 in 10.0 mi West 2.3 mph - 0.04 in Rain Light Rain
8:05 PM 50.0 °F - 48.2 °F 94% 29.70 in 10.0 mi Variable 2.3 mph - N/A Rain Light Rain
8:25 PM 50.0 °F - 46.4 °F 87% 29.70 in 10.0 mi Variable 1.2 mph - N/A Rain Rain
8:55 PM 49.3 °F - 47.3 °F 93% 29.70 in 10.0 mi West 2.3 mph - 0.02 in Rain Light Rain Showers
9:55 PM 48.2 °F - 46.0 °F 92% 29.70 in 10.0 mi NW 2.3 mph - 0.00 in   Mostly Cloudy
10:55 PM 47.3 °F - 45.9 °F 95% 29.70 in 10.0 mi WNW 2.3 mph - N/A   Mostly Cloudy
11:55 PM 46.9 °F - 45.3 °F 94% 29.71 in 10.0 mi Variable 1.2 mph - 0.00 in Rain Light Rain